This is the latest recevied weather packets stored in our database for station/object DL1DH-17. If no packets are shown the sender has not sent any weather packets the latest 10 day(s).
| Time | Temp. | Humidity | Pressure | Rain* | Wind** | Luminosity | Snow |
|---|---|---|---|---|---|---|---|
| 1777631636 | 15° C | 34% | 988.5 hPa | - | - | - | - |
| 1777630796 | 15° C | 34% | 988.4 hPa | - | - | - | - |
| 1777629955 | 15° C | 35% | 988.5 hPa | - | - | - | - |
| 1777629115 | 14.44° C | 35% | 988.4 hPa | - | - | - | - |
| 1777628275 | 14.44° C | 35% | 988.7 hPa | - | - | - | - |
| 1777627435 | 13.89° C | 36% | 988.8 hPa | - | - | - | - |
| 1777626595 | 13.89° C | 36% | 988.7 hPa | - | - | - | - |
| 1777625755 | 13.33° C | 36% | 988.8 hPa | - | - | - | - |
| 1777624915 | 13.33° C | 38% | 988.8 hPa | - | - | - | - |
| 1777624075 | 12.78° C | 38% | 989 hPa | - | - | - | - |
| 1777623235 | 11.67° C | 40% | 989 hPa | - | - | - | - |
| 1777622395 | 11.67° C | 41% | 989 hPa | - | - | - | - |
| 1777621555 | 11.11° C | 42% | 989 hPa | - | - | - | - |
| 1777620714 | 10.56° C | 44% | 989.3 hPa | - | - | - | - |
| 1777619869 | 10° C | 47% | 989.2 hPa | - | - | - | - |
| 1777619029 | 9.44° C | 48% | 989.2 hPa | - | - | - | - |
| 1777618189 | 8.89° C | 49% | 989.2 hPa | - | - | - | - |
| 1777617349 | 8.33° C | 50% | 989.1 hPa | - | - | - | - |
| 1777616509 | 7.78° C | 50% | 989.2 hPa | - | - | - | - |
| 1777615669 | 7.22° C | 52% | 989.1 hPa | - | - | - | - |
| 1777614829 | 6.67° C | 54% | 989.1 hPa | - | - | - | - |
| 1777613989 | 6.11° C | 54% | 989 hPa | - | - | - | - |
| 1777613148 | 6.11° C | 56% | 988.9 hPa | - | - | - | - |
| 1777612309 | 5.56° C | 57% | 988.8 hPa | - | - | - | - |
| 1777611468 | 5° C | 57% | 988.8 hPa | - | - | - | - |
* Rain since midnight (hover to see other rain measurements)
** Current wind speed in m/s (hover to see current wind gust speed)